RH
97 90 82 100 100 100 100 100 100 100 100 100 100 100 100 100 100 100 100 100 100 100 92 99 95 93 89 73 76 73 96 100 100 100 100 100 100 96 84 81 94 96 90
48 100 100 100 100 91 88 100 100 100 100 98 100 100 100 100 99 100 100 100 100 100 100 98 88 95 91 85 100 100 93 85 100 100 100 100 100 100 92 75 78 89 98
21 49 88 100 96 100 90 89 84 88 96 97 86 100 100 100 100 100 100 96 88 87 80 77 88 96 100 100 100 100 83 85 85 94 98 100 100 100 86 87 92 91 82
34 22 94 100 100 100 88 94 100 96 95 98 96 100 100 100 99 98 93 100 100 100 96 93 100 100 100 100 100 83 92 100 100 97 99 94 85 88 86 83 93 96 88
37 33 23 82 100 100 100 100 100 100 83 73 100 100 100 100 100 100 100 100 100 100 100 100 94 95 100 100 99 100 100 100 100 100 100 100 97 100 89 100 86 98 97
41 38 34 26 73 100 100 100 100 100 100 100 100 100 100 100 100 100 100 100 100 100 100 100 100 100 100 100 100 100 100 100 100 100 100 100 93 100 89 90 85 92 99
54 43 43 37 33 59 99 100 100 100 100 100 100 100 100 100 100 100 88 100 100 100 100 100 100 100 100 100 100 100 100 100 100 100 100 100 97 100 94 100 99 100 83
73 51 46 39 36 36 30 54 99 100 100 100 100 100 100 87 62 41 51 57 71 95 100 100 100 100 100 100 100 100 100 100 100 100 100 100 99 100 100 100 100 97 63
95 82 66 56 40 40 36 32 26 31 49 67 78 74 58 40 31 42 46 38 38 64 71 90 99 98 92 100 100 100 100 100 100 100 82 86 93 100 100 77 97 96 80
100 100 89 65 69 52 47 44 38 35 34 31 29 30 35 38 42 49 54 78 70 69 70 42 46 68 99 74 93 100 99 87 97 100 100 100 100 100 100 100 100 100 100
100 100 100 90 81 86 65 58 71 66 59 52 47 42 38 35 33 41 53 60 100 100 79 80 88 100 100 84 96 84 83 100 100 100 97 94 100 100 100 100 100 70 98
100 100 100 100 92 100 97 71 70 80 83 71 70 64 55 52 46 39 32 35 89 100 83 100 100 100 100 97 91 98 76 97 100 100 99 99 94 84 100 100 100 100 100
100 100 100 100 100 100 100 96 77 65 81 84 79 72 71 72 62 56 45 38 30 34 95 100 100 100 100 97 91 100 100 100 100 100 100 100 100 100 100 100 100 99 94
100 100 100 100 100 100 100 98 81 71 66 76 85 75 74 71 78 83 67 55 50 43 39 90 100 100 100 100 100 100 100 100 100 100 100 100 100 100 100 100 100 100 100
100 100 100 100 100 100 100 100 100 86 83 69 72 85 80 71 71 67 77 74 68 64 52 45 80 100 84 100 100 100 100 100 100 100 100 100 100 100 100 100 100 100 100
100 100 100 100 100 100 100 100 100 100 100 95 91 78 81 79 76 74 60 68 67 71 65 87 91 96 100 100 100 100 100 100 100 100 100 100 100 100 100 100 100 100 100
97 100 100 100 100 100 100 100 100 100 100 93 84 76 77 79 80 90 86 62 70 78 74 74 77 78 83 99 100 100 100 98 94 78 100 100 100 100 100 100 100 100 99
91 80 100 100 100 100 100 100 100 100 100 100 90 88 88 75 75 82 97 88 65 64 83 88 87 80 76 92 95 98 84 98 100 100 100 100 100 100 100 100 100 100 100
95 92 82 81 98 100 100 100 100 100 100 100 92 97 100 82 80 84 80 98 81 65 71 77 74 82 76 82 83 90 76 84 100 100 100 100 95 100 100 100 100 100 100
72 92 88 80 75 78 100 100 100 100 100 98 97 100 100 90 90 92 98 89 98 95 79 66 68 65 66 68 74 72 66 53 52 99 100 100 100 98 98 100 99 100 100
24 53 85 94 85 78 74 91 100 100 100 100 94 99 94 91 100 100 100 92 94 100 95 74 63 64 68 69 59 57 52 56 57 85 100 100 98 97 100 100 99 100 100
20 21 30 56 78 88 82 78 85 99 100 100 100 92 91 92 100 100 100 99 96 90 80 75 84 85 61 59 56 53 65 81 96 84 91 96 98 100 99 98 100 100 100
23 21 22 25 29 45 54 78 81 87 95 98 100 99 98 96 96 99 90 92 100 100 100 100 98 89 67 57 49 48 56 88 91 98 100 100 100 100 100 100 100 100 100
24 24 25 24 27 25 24 29 55 80 86 88 95 100 100 90 81 71 89 93 98 100 100 92 87 73 59 50 39 43 55 83 95 91 90 100 100 100 100 98 100 100 99
20 22 25 26 25 27 26 24 22 27 56 75 83 85 75 61 45 34 38 52 62 63 66 73 62 48 35 30 30 36 44 67 79 91 96 94 88 79 80 81 80 80 78
16 18 20 22 23 25 26 29 30 28 26 23 31 41 41 31 27 30 31 31 32 33 36 38 32 29 27 28 28 32 44 61 68 71 72 77 80 80 79 81 81 83 82
Wind_Speed
88 95 96 90 84 78 65 70 58 53 55 67 68 69 70 69 68 68 66 64 63 61 65 65 66 65 63 61 59 59 54 52 53 55 55 58 57 54 55 54 54 56 57
65 86 85 92 96 96 88 73 62 51 53 64 68 72 75 75 72 67 63 59 62 64 63 66 67 67 61 60 56 56 58 57 55 60 57 57 59 60 60 58 57 60 59
21 51 70 72 83 77 82 82 79 80 66 64 72 74 74 71 68 70 72 74 74 73 72 72 69 66 63 60 55 64 63 62 62 62 61 63 63 62 65 61 61 60 62
18 22 50 60 67 70 77 75 67 73 71 65 65 65 67 66 68 70 70 70 71 73 73 73 67 64 66 67 67 69 66 65 65 66 68 68 70 72 71 70 68 65 64
26 21 28 61 78 77 78 74 77 80 83 80 71 72 72 74 72 72 68 67 69 70 72 73 77 75 72 71 71 70 70 71 72 75 71 71 72 72 73 73 74 70 65
37 28 27 32 71 86 85 83 81 85 82 80 74 79 77 81 75 73 73 71 71 73 71 75 75 73 73 74 73 72 74 79 77 72 75 76 75 78 80 79 80 79 76
48 38 31 32 38 67 94 100 97 94 84 80 80 73 73 80 87 90 84 79 79 77 74 74 76 77 77 76 76 77 79 78 75 77 78 82 83 79 78 77 81 80 82
54 49 39 36 38 43 45 76 98 97 100 98 96 95 92 86 89 87 82 81 83 83 86 88 87 87 84 83 81 76 76 78 83 84 82 80 80 80 82 82 83 88 91
56 54 49 43 40 41 44 46 46 57 76 87 83 83 88 87 86 86 83 84 84 81 83 83 82 80 81 81 79 79 81 80 80 81 80 80 80 85 88 87 88 94 93
57 56 53 50 46 43 45 47 48 48 49 49 50 54 59 75 85 83 82 74 77 78 80 85 83 76 74 73 70 74 77 76 79 76 77 79 85 87 87 90 94 95 98
64 62 57 55 54 51 48 48 49 49 51 51 50 51 52 54 54 57 67 77 84 82 84 77 71 77 76 76 77 74 77 76 78 82 85 85 91 94 98 102 97 99 89
70 65 62 59 60 60 56 52 52 53 57 55 56 56 54 54 55 57 54 53 71 81 86 85 85 82 85 83 79 78 75 80 85 91 91 92 90 90 91 100 96 91 94
73 73 71 68 67 68 63 60 58 57 58 59 60 57 58 60 57 57 58 57 55 53 84 95 96 89 96 91 86 81 84 85 93 94 91 94 90 88 87 93 96 106 106
83 81 75 73 73 73 70 69 66 63 60 60 63 63 62 60 62 61 60 58 58 60 53 67 95 96 91 95 92 89 87 95 98 99 101 100 97 96 97 96 104 113 106
89 83 80 80 79 80 76 74 73 70 68 64 64 67 66 65 62 62 64 63 62 61 59 53 65 79 77 84 88 90 88 91 89 91 96 98 100 103 106 104 105 109 113
86 87 88 85 85 86 83 80 80 78 75 72 69 70 69 66 67 66 63 64 62 64 59 54 56 58 74 80 80 87 86 78 87 92 92 92 101 101 107 108 106 104 111
84 88 88 89 89 91 88 85 83 84 82 78 76 74 72 70 68 70 67 64 66 65 65 64 65 66 70 69 72 77 82 93 90 95 92 98 97 93 88 96 97 101 108
86 85 91 93 91 91 92 90 88 86 85 85 81 77 74 72 71 70 71 68 65 63 67 65 66 69 68 68 74 78 81 91 97 97 91 91 89 91 92 96 97 99 103
94 90 88 89 93 94 95 96 93 91 86 83 80 78 75 73 72 71 71 72 71 67 65 68 68 69 70 69 75 75 78 88 99 106 112 107 99 93 98 101 99 104 108
103 100 96 91 89 88 88 88 84 82 82 81 78 78 76 74 73 72 72 73 75 75 73 70 74 73 73 73 77 80 84 83 83 100 108 114 113 105 98 102 109 108 112
103 105 104 100 96 92 90 89 88 85 82 81 78 77 77 75 73 73 74 73 75 78 78 77 77 77 77 77 78 84 83 81 78 88 99 110 114 114 117 118 116 113 113
105 106 107 106 102 101 98 93 93 90 87 84 83 80 79 76 75 76 77 77 76 77 79 81 82 81 83 80 79 80 80 77 75 74 83 94 100 101 109 115 121 122 122
99 102 102 104 107 106 102 101 99 96 94 91 91 87 85 84 82 80 82 82 81 82 83 85 87 87 85 85 85 82 79 80 77 71 76 83 94 103 108 106 103 103 103
99 98 98 103 104 105 105 107 104 103 102 99 96 95 92 91 90 89 89 88 88 90 91 91 92 91 91 89 87 85 82 81 80 80 77 77 79 80 81 81 80 83 88
99 97 98 100 102 105 104 102 101 105 107 104 103 101 99 95 93 92 94 95 96 97 97 94 93 91 89 87 85 85 84 84 85 84 83 84 85 87 88 87 88 90 93
100 98 99 100 99 100 103 102 101 101 102 103 104 103 101 96 92 90 90 89 91 90 88 88 86 86 86 85 86 84 84 84 86 86 89 89 90 91 92 92 92 94 96
Wind_Direction
216 210 214 225 231 235 227 235 242 237 238 238 236 236 237 240 242 246 249 249 255 254 260 262 266 268 271 275 274 277 272 271 273 277 280 284 285 286 289 290 290 293 294
220 221 231 229 231 235 232 228 228 234 239 236 235 240 242 243 242 245 247 247 250 254 258 263 265 268 271 273 269 269 267 270 271 273 276 280 283 284 286 286 287 289 290
243 217 219 226 232 233 235 229 235 227 226 232 232 231 235 240 244 248 253 255 259 259 265 267 268 267 270 268 268 266 271 272 275 274 274 277 276 279 283 285 285 285 289
269 234 208 225 233 240 241 232 229 231 230 233 234 236 239 242 246 253 255 258 261 258 260 265 265 264 267 266 262 267 270 276 277 274 275 276 277 281 283 285 287 286 288
278 252 240 218 229 230 231 228 230 235 236 241 235 240 242 245 248 250 252 257 259 259 259 263 265 268 267 267 270 272 275 278 276 278 274 273 278 279 282 284 289 287 284
277 267 248 236 225 223 224 225 230 234 234 236 240 240 243 244 242 246 251 256 255 254 256 262 260 262 264 267 269 269 271 274 275 274 276 279 280 282 286 287 287 287 284
272 271 263 247 231 229 226 227 230 232 234 235 235 238 236 244 247 253 258 254 254 255 254 256 260 261 264 267 267 269 270 272 274 274 278 282 285 283 284 287 289 287 289
266 269 268 261 252 237 232 235 233 232 233 235 240 243 247 250 252 255 254 254 254 255 257 258 260 262 262 264 266 266 269 270 271 274 277 281 283 283 284 288 287 288 291
259 265 269 266 261 256 243 235 228 231 237 236 237 240 245 247 248 251 252 254 254 254 256 255 256 259 261 263 266 266 269 270 275 279 282 282 282 282 282 287 286 289 291
251 256 261 264 259 259 254 246 241 237 239 240 243 245 248 250 248 249 248 248 251 253 255 258 258 257 261 263 267 266 270 273 273 276 277 277 280 280 285 287 286 288 289
244 252 255 260 261 258 259 254 249 249 249 250 251 252 253 257 259 259 254 252 253 259 260 261 260 263 266 271 272 272 269 269 275 275 283 278 276 278 282 281 283 289 289
242 245 250 253 257 257 255 256 252 250 248 249 250 252 254 259 261 263 264 264 259 260 260 261 263 259 261 269 271 273 274 274 278 281 284 285 281 282 282 282 285 286 285
244 244 246 250 252 252 253 253 253 252 252 252 251 252 253 253 255 260 262 261 261 265 257 255 258 260 266 270 272 271 274 280 279 279 278 279 279 277 277 274 278 285 282
242 243 243 246 248 248 249 253 254 254 255 256 256 255 254 255 254 258 261 264 266 265 267 254 253 254 260 261 267 265 271 272 276 273 272 273 273 275 273 272 277 282 279
242 241 243 242 244 245 246 250 253 255 255 256 256 255 255 254 255 255 256 258 260 264 266 266 252 250 251 260 263 265 266 269 270 269 270 269 267 267 269 271 276 277 279
238 240 240 239 241 243 246 248 249 251 252 255 258 256 253 254 252 253 255 256 256 258 260 261 262 260 257 263 265 263 267 268 264 265 265 266 265 267 270 274 275 276 278
235 237 239 239 240 242 242 245 247 251 254 256 257 256 252 252 251 251 254 256 254 256 259 260 259 259 259 262 265 264 267 266 263 267 263 264 266 264 269 270 271 274 277
236 234 235 237 238 240 244 246 247 248 251 256 257 253 251 252 251 251 250 253 256 257 255 258 259 260 262 262 266 267 272 267 260 261 260 260 262 266 268 270 271 271 273
237 236 235 234 237 239 242 244 245 248 250 250 250 250 252 253 252 251 250 249 251 254 256 254 256 260 263 264 267 270 273 270 266 264 263 262 262 265 266 266 268 270 273
235 237 236 236 236 237 240 243 244 245 246 247 246 247 249 250 250 250 250 250 250 253 254 256 256 258 262 267 268 268 270 275 274 265 262 261 263 267 266 267 270 270 273
236 236 237 236 236 238 237 240 243 243 243 245 244 244 246 248 250 249 249 250 250 251 253 256 257 259 261 265 268 268 270 271 271 265 263 263 266 267 268 269 270 272 273
236 236 237 237 236 238 238 239 240 242 243 243 245 245 244 246 248 250 248 248 250 251 253 256 259 262 264 266 268 270 271 272 273 273 270 269 272 275 273 273 275 275 280
238 237 236 238 240 236 237 238 240 241 241 243 246 246 246 248 250 251 250 249 251 253 255 258 260 264 266 268 269 269 268 268 271 270 271 271 271 273 273 279 278 278 280
237 236 236 236 238 241 239 237 238 240 241 242 245 246 248 249 251 252 253 252 253 256 257 260 263 265 267 268 268 266 266 266 266 269 269 271 274 275 275 277 278 279 280
238 236 236 236 236 238 240 241 240 240 240 242 244 246 248 250 252 252 253 254 256 257 259 262 264 266 265 266 265 265 264 264 265 265 265 266 268 271 274 276 278 281 283
237 235 234 235 236 237 238 239 240 241 242 241 242 244 246 248 249 249 251 253 255 256 257 258 261 264 265 265 266 266 265 265 266 267 269 270 271 273 275 278 280 282 284